[[{"header":{"parameterUnit":"m.s-1","parameterCategory":1,"la1":30.2991,"la2":30.254,"lo1":-89.0895,"lo2":-89.0444,"dy":0.0017,"dx":0.0017,"nx":28,"ny":28,"refTime":"2024-04-23T09:00:00:Z","depth":0,"parameterNumber":2,"parameterNumberName":"U-component_of_WINDS"},"data":[0,0,0,0,0,0,0,0,0,0,0,0,0,0,0,0,0,0,0,0,0,0,0,0,0,0,0,0,0,0,0,0,0,0,0,0,0,0,0,0,0,0,0,0,0,0,0,0,0,0,0,0,0,0,0,0,0,0,-1.6619,-1.6619,0,-1.6601,-1.6601,-1.66,-1.6585,-1.6585,-1.6585,-1.6584,-1.6565,-1.6565,-1.6564,0,0,0,0,0,0,0,0,0,0,0,0,0,-1.6642,-1.6642,-1.662,-1.6619,-1.6619,-1.6601,-1.6601,-1.66,-1.6585,-1.6585,-1.6584,-1.6584,-1.6565,-1.6565,-1.6564,0,0,0,0,0,0,0,0,0,0,0,0,0,-1.6629,-1.6642,-1.662,-1.6609,-1.6608,-1.6601,-1.6601,-1.66,-1.6585,-1.6585,-1.6584,-1.6584,-1.6565,-1.6565,-1.6564,-1.6566,0,0,-1.6563,-1.6563,0,0,0,0,0,0,0,0,-1.663,-1.6628,-1.6611,-1.661,-1.6609,-1.6595,-1.6602,-1.6589,-1.6585,-1.6594,-1.6584,-1.6584,-1.6575,-1.6574,-1.6571,-1.6565,-1.6564,-1.6563,-1.6562,-1.6562,-1.6562,0,0,0,0,0,0,0,-1.6631,-1.6629,-1.6612,-1.6611,-1.6609,-1.6606,-1.6603,-1.6599,-1.6586,-1.6593,-1.6592,-1.659,-1.6575,-1.6572,-1.657,-1.6564,-1.6563,-1.6562,-1.6562,-1.6562,-1.6559,-1.6559,0,0,0,0,0,0,-1.6633,-1.663,-1.6613,-1.6612,-1.6619,-1.6605,-1.6603,-1.66,-1.6586,-1.6584,-1.659,-1.6589,-1.6573,-1.6571,-1.657,-1.6571,-1.6562,-1.6562,-1.6561,-1.6559,-1.6559,-1.6559,0,0,0,0,0,0,-1.6634,-1.6632,-1.6613,-1.662,-1.6618,-1.6605,-1.6602,-1.6599,-1.6596,-1.6584,-1.6582,-1.6589,-1.6572,-1.657,-1.6567,-1.657,-1.6561,-1.6561,-1.6558,-1.6559,-1.6559,-1.6573,0,0,0,0,0,0,-1.6634,-1.6632,-1.6632,-1.662,-1.6617,-1.6611,-1.6602,-1.6599,-1.6595,-1.6594,-1.6582,-1.658,-1.6572,-1.6568,-1.6567,-1.6569,-1.656,-1.6558,-1.6559,-1.6559,-1.6572,-1.6573,-1.6575,0,0,0,0,0,-1.6635,-1.6637,-1.6632,-1.663,-1.6618,-1.6611,-1.661,-1.66,-1.6596,-1.6596,-1.6588,-1.6581,-1.657,-1.6568,-1.6566,-1.6568,-1.6558,-1.6558,-1.6559,-1.6571,-1.6573,-1.6575,0,0,0,0,0,0,-1.6649,-1.6635,-1.663,-1.6628,-1.6621,-1.6609,-1.6609,-1.6602,-1.6596,-1.6595,-1.6584,-1.6581,-1.6579,-1.6573,-1.6571,-1.6569,-1.6563,-1.6563,-1.6573,-1.6574,-1.6576,-1.6577,-1.656,0,0,0,0,0,-1.6652,-1.6648,-1.6636,-1.6635,-1.6632,-1.6621,-1.6618,-1.6611,-1.6604,-1.6601,-1.6592,-1.6585,-1.658,-1.6577,-1.6572,-1.6571,-1.6568,-1.6572,-1.6573,-1.6575,-1.6575,-1.6574,-1.6575,-1.6561,-1.6561,-1.6561,0,0,-1.6658,-1.665,-1.6648,-1.6638,-1.6632,-1.6628,-1.6619,-1.6615,-1.6612,-1.66,-1.6596,-1.659,-1.6582,-1.658,-1.6578,-1.6575,-1.6578,-1.6575,-1.6576,-1.6576,-1.6575,-1.6576,-1.6577,-1.6561,-1.6561,-1.6561,0,0,-1.6667,-1.666,-1.6659,-1.6653,-1.6644,-1.6636,-1.6636,-1.6625,-1.6621,-1.6617,-1.6608,-1.6604,-1.6596,-1.659,-1.6586,-1.6593,-1.6586,-1.6592,-1.6599,-1.6598,-1.6599,-1.66,-1.6603,-1.6604,-1.6592,-1.6592,-1.6592,0,-1.6675,-1.6669,-1.6659,-1.6656,-1.6652,-1.6641,-1.6639,-1.6634,-1.6624,-1.6621,-1.6618,-1.6607,-1.6601,-1.6597,-1.6599,-1.6596,-1.6595,-1.6593,-1.66,-1.6601,-1.6602,-1.6604,-1.6605,-1.6593,-1.6593,-1.6593,-1.6593,0,-1.6679,-1.6675,-1.6675,-1.6666,-1.6662,-1.6659,-1.6649,-1.6647,-1.664,-1.6634,-1.663,-1.6622,-1.6615,-1.6614,-1.6608,-1.661,-1.6608,-1.6602,-1.6596,-1.6604,-1.6606,-1.6606,-1.6594,-1.6594,-1.6594,-1.6593,0,0,-1.6696,-1.6681,-1.6681,-1.6676,-1.6666,-1.6662,-1.666,-1.6653,-1.6651,-1.6644,-1.6642,-1.6636,-1.6631,-1.6626,-1.6619,-1.6619,-1.6625,-1.6614,-1.6613,-1.6616,-1.6626,-1.663,-1.6631,-1.6621,-1.6621,-1.6621,-1.6627,0,-1.6702,-1.6697,-1.6688,-1.6685,-1.6681,-1.6671,-1.6669,-1.6663,-1.6657,-1.6652,-1.6646,-1.6641,-1.6635,-1.6632,-1.6632,-1.6624,-1.6627,-1.6624,-1.6618,-1.6618,-1.662,-1.6632,-1.6636,-1.6642,-1.6628,-1.6628,-1.6628,0,-1.6709,-1.6703,-1.67,-1.669,-1.6688,-1.6686,-1.6679,-1.6675,-1.6668,-1.6663,-1.6659,-1.6651,-1.6648,-1.6643,-1.6639,-1.6637,-1.6634,-1.6631,-1.6631,-1.6629,-1.6623,-1.663,-1.6644,-1.6644,-1.6629,-1.6629,-1.6629,0,-1.672,-1.6712,-1.6709,-1.6705,-1.6693,-1.6692,-1.6687,-1.668,-1.6676,-1.667,-1.6668,-1.6662,-1.6659,-1.6654,-1.6646,-1.6643,-1.6642,-1.6636,-1.6639,-1.6639,-1.6638,-1.6638,-1.6651,-1.6638,-1.6638,-1.6638,-1.6638,0,-1.6728,-1.6727,-1.6714,-1.6712,-1.671,-1.67,-1.6699,-1.6693,-1.6686,-1.6683,-1.6674,-1.6672,-1.6661,-1.6657,-1.6651,-1.6648,-1.6647,-1.6643,-1.6642,-1.6644,-1.6644,-1.6641,-1.664,-1.6638,-1.6638,-1.6638,-1.6638,0,-1.6741,-1.6732,-1.6728,-1.6717,-1.6714,-1.6713,-1.6704,-1.6702,-1.6696,-1.6692,-1.6691,-1.6681,-1.6676,-1.6667,-1.666,-1.6656,-1.6654,-1.6652,-1.6657,-1.6656,-1.6658,-1.6658,-1.6669,-1.667,-1.6657,-1.6657,-1.6657,0,-1.6746,-1.6744,-1.6733,-1.6731,-1.6726,-1.6722,-1.6718,-1.6709,-1.6705,-1.6697,-1.6696,-1.6691,-1.6686,-1.6679,-1.6671,-1.6665,-1.6662,-1.6666,-1.6661,-1.6663,-1.6662,-1.6661,-1.6661,-1.6667,-1.6667,-1.6667,-1.6668,0,-1.6756,-1.6752,-1.6747,-1.674,-1.6736,-1.6731,-1.6725,-1.6723,-1.6713,-1.671,-1.6704,-1.6701,-1.6693,-1.6688,-1.6682,-1.6677,-1.667,-1.6669,-1.6669,-1.6671,-1.6674,-1.6672,-1.6659,-1.6669,-1.6669,-1.6669,-1.6669,-1.6669,-1.6765,-1.6763,-1.6755,-1.675,-1.6744,-1.6739,-1.6737,-1.673,-1.6726,-1.6719,-1.6714,-1.6709,-1.6702,-1.6692,-1.6688,-1.6684,-1.6681,-1.6682,-1.6682,-1.6682,-1.6683,-1.6676,-1.6683,-1.6683,-1.6683,-1.6683,-1.6683,0,-1.6774,-1.6769,-1.6764,-1.6756,-1.6752,-1.6746,-1.674,-1.6737,-1.6733,-1.6727,-1.6722,-1.6716,-1.6711,-1.6703,-1.6698,-1.6696,-1.6693,-1.6695,-1.6695,-1.6694,-1.6686,-1.6686,-1.6698,-1.6698,-1.6698,-1.6698,-1.6698,-1.6698,-1.6779,-1.6775,-1.677,-1.6764,-1.6759,-1.6754,-1.675,-1.6746,-1.6741,-1.6735,-1.673,-1.6725,-1.6718,-1.6712,-1.6708,-1.6705,-1.6704,-1.6706,-1.6703,-1.6696,-1.6694,-1.6693,-1.6693,-1.6706,-1.6706,-1.6711,-1.6711,-1.6711]},{"header":{"parameterUnit":"m.s-1","parameterCategory":1,"la1":30.2991,"la2":30.254,"lo1":-89.0895,"lo2":-89.0444,"dy":0.0017,"dx":0.0017,"nx":28,"ny":28,"refTime":"2024-04-23T09:00:00:Z","depth":0,"parameterNumber":3,"parameterNumberName":"V-component_of_WINDS"},"data":[0,0,0,0,0,0,0,0,0,0,0,0,0,0,0,0,0,0,0,0,0,0,0,0,0,0,0,0,0,0,0,0,0,0,0,0,0,0,0,0,0,0,0,0,0,0,0,0,0,0,0,0,0,0,0,0,0,0,3.913,3.913,0,3.9149,3.9149,3.915,3.917,3.917,3.917,3.9171,3.9187,3.9187,3.9187,0,0,0,0,0,0,0,0,0,0,0,0,0,3.9108,3.9108,3.913,3.913,3.913,3.9149,3.9149,3.915,3.917,3.917,3.917,3.9171,3.9187,3.9187,3.9187,0,0,0,0,0,0,0,0,0,0,0,0,0,3.9121,3.9108,3.913,3.9142,3.9144,3.9149,3.9149,3.915,3.917,3.917,3.917,3.9171,3.9187,3.9187,3.9187,3.9181,0,0,3.9188,3.9188,0,0,0,0,0,0,0,0,3.912,3.9122,3.914,3.9142,3.9143,3.9158,3.9148,3.916,3.917,3.916,3.9171,3.9171,3.9177,3.9178,3.918,3.9181,3.9182,3.9188,3.9188,3.9189,3.9189,0,0,0,0,0,0,0,3.9119,3.9121,3.9137,3.9141,3.9142,3.9147,3.9149,3.915,3.9165,3.9161,3.9162,3.9164,3.9177,3.918,3.9181,3.9182,3.9188,3.9189,3.9189,3.9189,3.918,3.918,0,0,0,0,0,0,3.9117,3.912,3.9137,3.9138,3.9133,3.9147,3.9149,3.9152,3.9166,3.9168,3.9164,3.9165,3.9179,3.9181,3.9182,3.9176,3.9189,3.9189,3.9189,3.9181,3.918,3.918,0,0,0,0,0,0,3.9116,3.9118,3.9136,3.913,3.9132,3.9147,3.915,3.9153,3.9155,3.9168,3.9171,3.9164,3.918,3.9181,3.9181,3.9176,3.9189,3.9189,3.9181,3.9181,3.918,3.9163,0,0,0,0,0,0,3.9116,3.9118,3.9116,3.9129,3.9132,3.9136,3.915,3.9153,3.9156,3.9158,3.9169,3.9171,3.918,3.9181,3.9182,3.9177,3.9189,3.9182,3.9181,3.918,3.9164,3.9162,3.916,0,0,0,0,0,3.9115,3.9109,3.9115,3.9117,3.913,3.9135,3.9137,3.9149,3.9156,3.9153,3.9162,3.9171,3.9177,3.9181,3.9182,3.9177,3.9182,3.9181,3.918,3.9165,3.9162,3.916,0,0,0,0,0,0,3.9092,3.9111,3.9118,3.9117,3.9125,3.9139,3.9136,3.9145,3.9151,3.9152,3.9165,3.9168,3.9166,3.9172,3.9176,3.9172,3.9181,3.918,3.9169,3.9166,3.9164,3.9163,3.919,0,0,0,0,0,3.9088,3.9091,3.9107,3.9104,3.9107,3.9121,3.9124,3.9133,3.9141,3.9144,3.9152,3.9159,3.9163,3.9165,3.9169,3.9165,3.9168,3.9162,3.916,3.9159,3.9158,3.9158,3.9156,3.9177,3.9177,3.9177,0,0,3.9077,3.9087,3.9088,3.91,3.9107,3.911,3.9124,3.9126,3.9128,3.9144,3.9145,3.9152,3.916,3.9159,3.9158,3.9163,3.9153,3.9158,3.9156,3.9156,3.9156,3.9154,3.9153,3.9176,3.9177,3.9177,0,0,3.9059,3.9067,3.9067,3.9074,3.9086,3.9095,3.9095,3.9108,3.9114,3.9116,3.9128,3.9131,3.9136,3.9143,3.9146,3.9134,3.9142,3.9135,3.9124,3.9124,3.9122,3.912,3.9117,3.9115,3.9134,3.9134,3.9134,0,3.9044,3.905,3.9065,3.9067,3.9072,3.9088,3.9088,3.9094,3.9105,3.9108,3.9113,3.9123,3.9129,3.913,3.9127,3.913,3.913,3.9133,3.9121,3.912,3.9119,3.9115,3.9114,3.9133,3.9133,3.9133,3.9133,0,3.9032,3.9036,3.9034,3.9047,3.9051,3.9052,3.9066,3.9069,3.9078,3.9087,3.9089,3.9098,3.9105,3.9106,3.9114,3.9109,3.9112,3.9119,3.9128,3.9116,3.9113,3.9111,3.9131,3.9132,3.9132,3.9132,0,0,3.8999,3.9022,3.9021,3.9028,3.9042,3.9045,3.9047,3.9056,3.9058,3.9066,3.9068,3.9074,3.9081,3.9086,3.9095,3.9094,3.9085,3.9102,3.9102,3.9099,3.9081,3.9076,3.9074,3.9091,3.9091,3.9091,3.9081,0,3.8984,3.899,3.9004,3.9005,3.9009,3.9026,3.9027,3.9036,3.9045,3.905,3.9059,3.9064,3.9073,3.9076,3.9077,3.9086,3.9082,3.9087,3.9093,3.9093,3.909,3.9072,3.9066,3.9056,3.9079,3.9079,3.9079,0,3.8968,3.8977,3.8978,3.8995,3.8997,3.8998,3.9008,3.9013,3.9023,3.903,3.9036,3.9047,3.905,3.9059,3.9063,3.9066,3.907,3.9075,3.9075,3.9076,3.9085,3.9073,3.9053,3.9052,3.9077,3.9077,3.9077,0,3.8945,3.8957,3.896,3.8965,3.8984,3.8985,3.8993,3.9004,3.9009,3.9017,3.9021,3.9028,3.9033,3.9039,3.9051,3.9056,3.9054,3.9064,3.906,3.906,3.9058,3.9058,3.9039,3.906,3.906,3.906,3.906,0,3.8927,3.8927,3.895,3.8952,3.8954,3.897,3.8971,3.898,3.8991,3.8994,3.9009,3.9012,3.9028,3.9033,3.9043,3.9046,3.9047,3.9052,3.9055,3.9051,3.9051,3.9054,3.9055,3.906,3.906,3.906,3.906,0,3.8901,3.8916,3.8921,3.894,3.8944,3.8945,3.896,3.8963,3.8973,3.8978,3.898,3.8996,3.9003,3.9017,3.9026,3.9033,3.9034,3.9038,3.9031,3.9032,3.9028,3.9028,3.901,3.9009,3.903,3.903,3.903,0,3.8889,3.889,3.8909,3.8914,3.8922,3.8928,3.8934,3.895,3.8955,3.8969,3.897,3.8979,3.8986,3.8996,3.9009,3.9017,3.9022,3.9015,3.9023,3.902,3.9022,3.9022,3.9023,3.9013,3.9012,3.9012,3.9012,0,3.8866,3.8874,3.8882,3.8893,3.89,3.8909,3.8919,3.8922,3.8941,3.8946,3.8954,3.896,3.8972,3.898,3.8991,3.8998,3.9008,3.901,3.9009,3.9005,3.9001,3.9004,3.9026,3.901,3.901,3.901,3.901,3.901,3.8847,3.8849,3.8864,3.8873,3.8883,3.8892,3.8896,3.8908,3.8916,3.8927,3.8937,3.8944,3.8957,3.8972,3.8979,3.8985,3.899,3.8989,3.8989,3.8989,3.8988,3.9001,3.8987,3.8987,3.8987,3.8987,3.8987,0,3.8825,3.8836,3.8844,3.8859,3.8866,3.8877,3.8889,3.8894,3.8901,3.8912,3.8921,3.8931,3.8939,3.8953,3.8963,3.8965,3.897,3.8967,3.8967,3.8969,3.8982,3.8982,3.8963,3.8963,3.8963,3.8963,3.8963,3.8963,3.8814,3.882,3.883,3.8841,3.8851,3.886,3.8866,3.8875,3.8885,3.8896,3.8904,3.8914,3.8926,3.8937,3.8946,3.895,3.8953,3.8948,3.8954,3.8966,3.8968,3.897,3.897,3.8949,3.8949,3.894,3.894,3.894]}]]